KE5OYL Weather Reports


Display with metric or nautical units.
time (UTC)temp
F
wind
direction
speed
MPH
gust
MPH
rain 1hr
in
rain 24hr
in
rain mn
in
humidity
%
barometer
mb
20260506002340 78 3 1.0 2.0 0.00 0.02 0.02 74 1005.9
20260506001836 78 340 3.0 5.0 0.00 0.02 0.02 72 1005.6
20260506001333 78 318 4.0 7.0 0.05 0.02 0.02 72 1005.6
20260506000830 80 8 9.0 13.0 0.12 0.02 0.02 68 1005.6
20260506000330 85 300 3.0 6.0 0.00 0.00 0.00 59 1005.1
20260505235825 84 342 6.0 11.0 0.00 0.00 0.00 60 1005.0
20260505235322 84 302 5.0 10.0 0.00 0.00 0.00 70 1004.6
20260505234819 84 294 3.0 7.0 0.00 0.00 0.00 69 1004.5
20260505234317 85 209 5.0 9.0 0.00 0.00 0.00 69 1004.2
20260505233813 85 235 5.0 14.0 0.00 0.00 0.00 69 1004.3
20260505233311 86 193 9.0 9.0 0.00 0.00 0.00 68 1004.8
20260505232808 86 184 8.0 10.0 0.00 0.00 0.00 68 1004.5
20260505232306 86 188 8.0 13.0 0.00 0.00 0.00 67 1004.3
20260505231802 87 174 7.0 13.0 0.00 0.00 0.00 66 1004.4
20260505231301 87 176 5.0 7.0 0.00 0.00 0.00 64 1004.4
20260505230758 87 134 7.0 11.0 0.00 0.00 0.00 65 1004.3
20260505230255 88 174 9.0 13.0 0.00 0.00 0.00 63 1004.4
20260505225752 88 184 5.0 13.0 0.00 0.00 0.00 62 1004.3
20260505225249 89 146 5.0 10.0 0.00 0.00 0.00 61 1004.1
20260505224744 89 178 6.0 10.0 0.00 0.00 0.00 60 1003.9
20260505224242 89 191 5.0 9.0 0.00 0.00 0.00 61 1004.0
20260505223739 88 195 5.0 10.0 0.00 0.00 0.00 61 1003.9
20260505223235 89 171 7.0 10.0 0.00 0.00 0.00 62 1004.0
20260505222731 90 145 7.0 14.0 0.00 0.00 0.00 60 1004.0
20260505222228 89 223 3.0 9.0 0.00 0.00 0.00 60 1004.0
20260505221725 90 177 8.0 9.0 0.00 0.00 0.00 56 1004.0
20260505221221 90 237 5.0 7.0 0.00 0.00 0.00 56 1004.0
20260505220718 89 237 7.0 14.0 0.00 0.00 0.00 56 1004.0
20260505220216 90 235 5.0 11.0 0.00 0.00 0.00 56 1003.9
20260505215714 89 47 3.0 7.0 0.00 0.00 0.00 57 1004.1
20260505215212 90 232 5.0 13.0 0.00 0.00 0.00 56 1004.1
20260505214709 89 229 6.0 13.0 0.00 0.00 0.00 54 1003.9
20260505214207 90 267 6.0 8.0 0.00 0.00 0.00 56 1004.0
20260505213704 89 286 5.0 6.0 0.00 0.00 0.00 54 1004.1
20260505213201 90 298 4.0 14.0 0.00 0.00 0.00 54 1004.3
20260505212656 89 282 6.0 10.0 0.00 0.00 0.00 54 1004.4
20260505212154 89 259 3.0 9.0 0.00 0.00 0.00 53 1004.2
20260505211651 90 214 6.0 8.0 0.00 0.00 0.00 53 1004.5
20260505211148 89 205 6.0 14.0 0.00 0.00 0.00 53 1004.4
20260505210645 89 237 5.0 14.0 0.00 0.00 0.00 54 1004.3
20260505210142 89 271 9.0 11.0 0.00 0.00 0.00 53 1004.6
20260505205639 89 223 7.0 9.0 0.00 0.00 0.00 56 1004.6
20260505205137 89 180 5.0 8.0 0.00 0.00 0.00 55 1004.4
20260505204633 88 246 6.0 11.0 0.00 0.00 0.00 55 1004.8
20260505204132 88 258 7.0 14.0 0.00 0.00 0.00 57 1005.0
20260505203628 88 217 11.0 14.0 0.00 0.00 0.00 56 1004.8
20260505203125 88 250 9.0 13.0 0.00 0.00 0.00 56 1004.7
20260505202621 89 218 5.0 9.0 0.00 0.00 0.00 54 1004.9
20260505202117 88 240 9.0 15.0 0.00 0.00 0.00 56 1004.9
20260505201613 88 250 10.0 18.0 0.00 0.00 0.00 57 1004.9
20260505201111 87 220 9.0 11.0 0.00 0.00 0.00 57 1005.2
20260505200609 88 240 9.0 16.0 0.00 0.00 0.00 58 1004.9
20260505200106 88 236 12.0 17.0 0.00 0.00 0.00 59 1005.0
20260505195602 87 241 8.0 16.0 0.00 0.00 0.00 60 1005.1
20260505195100 86 208 10.0 14.0 0.00 0.00 0.00 62 1004.9
20260505194556 86 260 8.0 13.0 0.00 0.00 0.00 61 1005.1
20260505194052 86 212 9.0 16.0 0.00 0.00 0.00 62 1005.3
20260505193549 85 253 3.0 16.0 0.00 0.00 0.00 63 1005.3
20260505193047 87 263 13.0 18.0 0.00 0.00 0.00 61 1005.3
20260505192545 86 183 7.0 10.0 0.00 0.00 0.00 62 1005.2
20260505192042 86 169 7.0 14.0 0.00 0.00 0.00 62 1005.2
20260505191540 85 235 6.0 9.0 0.00 0.00 0.00 63 1005.2
20260505191038 85 195 7.0 10.0 0.00 0.00 0.00 63 1005.3
20260505190532 85 195 12.0 15.0 0.00 0.00 0.00 65 1005.2
20260505190029 85 238 7.0 11.0 0.00 0.00 0.00 64 1005.3
20260505185526 85 230 11.0 15.0 0.00 0.00 0.00 65 1005.7
20260505185022 84 244 6.0 11.0 0.00 0.00 0.00 66 1005.6
20260505184519 84 235 8.0 14.0 0.00 0.00 0.00 66 1005.7
20260505184016 84 175 12.0 15.0 0.00 0.00 0.00 66 1005.6
20260505183513 83 205 10.0 14.0 0.00 0.00 0.00 67 1005.9
20260505183010 83 218 12.0 14.0 0.00 0.00 0.00 68 1005.8
20260505182506 82 206 12.0 16.0 0.00 0.00 0.00 68 1005.8
20260505182003 83 204 8.0 11.0 0.00 0.00 0.00 68 1005.9
20260505181459 83 245 7.0 11.0 0.00 0.00 0.00 68 1005.9
20260505180956 83 212 9.0 15.0 0.00 0.00 0.00 68 1005.8
20260505180452 82 211 9.0 15.0 0.00 0.00 0.00 69 1006.0
20260505175949 82 193 8.0 14.0 0.00 0.00 0.00 69 1005.9
20260505175445 82 167 9.0 16.0 0.00 0.00 0.00 70 1005.8
20260505174942 81 202 6.0 11.0 0.00 0.00 0.00 70 1005.8
20260505174439 81 187 9.0 15.0 0.00 0.00 0.00 71 1005.9
20260505173936 81 204 11.0 16.0 0.00 0.00 0.00 71 1005.9
20260505173432 81 210 9.0 13.0 0.00 0.00 0.00 69 1006.1
20260505172929 81 191 8.0 16.0 0.00 0.00 0.00 70 1006.0
20260505172428 81 265 11.0 18.0 0.00 0.00 0.00 70 1006.0
20260505171926 81 249 7.0 16.0 0.00 0.00 0.00 70 1006.0
20260505171424 81 251 7.0 9.0 0.00 0.00 0.00 69 1005.8
20260505170920 81 212 8.0 13.0 0.00 0.00 0.00 69 1005.9
20260505170417 81 212 15.0 18.0 0.00 0.00 0.00 70 1006.1
20260505165913 80 236 10.0 14.0 0.00 0.00 0.00 70 1006.1
20260505165409 80 230 12.0 15.0 0.00 0.00 0.00 70 1006.1
20260505164904 80 203 11.0 15.0 0.00 0.00 0.00 71 1006.1
20260505164401 80 219 5.0 9.0 0.00 0.00 0.00 72 1006.0
20260505163859 79 194 8.0 13.0 0.00 0.00 0.00 72 1006.1
20260505163358 79 207 12.0 21.0 0.00 0.00 0.00 72 1006.1
20260505162856 78 192 10.0 15.0 0.00 0.00 0.00 74 1005.9
20260505162352 78 224 15.0 21.0 0.00 0.00 0.00 74 1005.8
20260505161849 78 230 7.0 18.0 0.00 0.00 0.00 74 1005.9
20260505161346 78 207 13.0 15.0 0.00 0.00 0.00 72 1005.8
20260505160843 79 221 13.0 16.0 0.00 0.00 0.00 72 1005.7
20260505160341 78 213 9.0 20.0 0.00 0.00 0.00 73 1005.6
20260505153320 77 239 10.0 17.0 0.00 0.00 0.00 75 1006.0
20260505152817 77 245 10.0 16.0 0.00 0.00 0.00 76 1005.9
20260505152314 77 208 12.0 18.0 0.00 0.00 0.00 76 1006.1
20260505151808 77 182 7.0 16.0 0.00 0.00 0.00 76 1006.2
20260505151305 76 228 4.0 15.0 0.00 0.00 0.00 77 1006.4
20260505150802 76 190 13.0 16.0 0.00 0.00 0.00 77 1006.2
20260505150259 76 241 11.0 14.0 0.00 0.00 0.00 77 1006.3
20260505140224 74 228 8.0 9.0 0.00 0.00 0.00 81 1006.2
20260505130147 72 237 6.0 8.0 0.00 0.00 0.00 84 1005.3
20260505124637 72 229 9.0 13.0 0.00 0.00 0.00 84 1005.6
20260505124134 72 208 3.0 10.0 0.00 0.00 0.00 84 1005.7
20260505123630 72 181 7.0 9.0 0.00 0.00 0.00 84 1005.3
20260505123127 71 229 9.0 11.0 0.00 0.00 0.00 85 1005.3
20260505122623 71 173 7.0 13.0 0.00 0.00 0.00 85 1005.0
20260505122120 71 170 5.0 15.0 0.00 0.00 0.00 85 1005.0
20260505121611 71 238 6.0 7.0 0.00 0.00 0.00 85 1004.8
20260505121108 71 165 5.0 11.0 0.00 0.00 0.00 85 1005.0
20260505120604 71 201 7.0 10.0 0.00 0.00 0.00 85 1004.9
20260505120100 71 192 7.0 10.0 0.00 0.00 0.00 85 1005.2
20260505115554 71 236 5.0 7.0 0.00 0.00 0.00 85 1005.0
20260505115052 71 157 11.0 14.0 0.00 0.00 0.00 85 1004.8
20260505114549 71 191 7.0 9.0 0.00 0.00 0.00 85 1004.9
20260505114045 71 209 5.0 10.0 0.00 0.00 0.00 85 1004.9
20260505113542 71 172 6.0 11.0 0.00 0.00 0.00 85 1005.1
20260505113038 71 205 7.0 11.0 0.00 0.00 0.00 85 1005.0
20260505112534 71 195 5.0 9.0 0.00 0.00 0.00 85 1005.0
20260505112033 71 140 6.0 8.0 0.00 0.00 0.00 85 1004.9
20260505111526 71 211 6.0 9.0 0.00 0.00 0.00 85 1004.9
20260505111022 71 210 9.0 13.0 0.00 0.00 0.00 85 1005.0
20260505110514 71 206 7.0 10.0 0.00 0.00 0.00 85 1005.0
20260505101946 71 195 7.0 13.0 0.00 0.00 0.00 85 1004.9
20260505101444 71 197 4.0 10.0 0.00 0.00 0.00 85 1005.0
20260505100940 71 211 6.0 9.0 0.00 0.00 0.00 84 1005.0
20260505100438 71 197 11.0 14.0 0.00 0.00 0.00 84 1004.9
20260505095933 71 213 6.0 9.0 0.00 0.00 0.00 84 1005.1
20260505095430 71 223 7.0 8.0 0.00 0.00 0.00 84 1005.1
20260505094926 71 218 7.0 13.0 0.00 0.00 0.00 84 1005.0
20260505094424 71 165 7.0 13.0 0.00 0.00 0.00 84 1005.1
20260505093920 71 199 13.0 16.0 0.00 0.00 0.00 84 1005.0
20260505093416 71 200 5.0 14.0 0.00 0.00 0.00 84 1005.1
20260505092914 71 201 8.0 10.0 0.00 0.00 0.00 84 1005.1
20260505092412 71 217 11.0 15.0 0.00 0.00 0.00 84 1005.4
20260505091909 71 174 6.0 10.0 0.00 0.00 0.00 84 1005.3
20260505091406 71 186 10.0 21.0 0.00 0.00 0.00 84 1005.3
20260505090904 71 187 9.0 15.0 0.00 0.00 0.00 84 1005.3
20260505090402 71 174 7.0 14.0 0.00 0.00 0.00 85 1005.4
20260505085859 71 209 4.0 8.0 0.00 0.00 0.00 84 1005.3
20260505085357 71 215 6.0 9.0 0.00 0.00 0.00 85 1005.6
20260505084855 71 230 11.0 15.0 0.00 0.00 0.00 84 1005.3
20260505084353 71 205 10.0 13.0 0.00 0.00 0.00 84 1005.1
20260505083850 71 211 7.0 14.0 0.00 0.00 0.00 85 1005.4
20260505083348 71 163 5.0 10.0 0.00 0.00 0.00 85 1005.3
20260505082844 71 236 5.0 13.0 0.00 0.00 0.00 85 1005.4
20260505082340 71 212 6.0 13.0 0.00 0.00 0.00 84 1005.7
20260505081837 71 179 7.0 15.0 0.00 0.00 0.00 84 1005.6
20260505081333 71 209 7.0 9.0 0.00 0.00 0.00 84 1005.6
20260505080830 71 196 12.0 15.0 0.00 0.00 0.00 84 1005.7
20260505080326 71 200 11.0 15.0 0.00 0.00 0.00 84 1005.9
20260505075822 71 188 10.0 13.0 0.00 0.00 0.00 84 1005.6
20260505075319 71 181 3.0 8.0 0.00 0.00 0.00 84 1005.7
20260505074816 71 166 6.0 15.0 0.00 0.00 0.00 84 1005.8
20260505074313 71 106 3.0 11.0 0.00 0.00 0.00 83 1006.2
20260505073811 71 204 9.0 15.0 0.00 0.00 0.00 83 1005.9
20260505073309 71 180 7.0 10.0 0.00 0.00 0.00 83 1006.0
20260505072805 71 201 14.0 20.0 0.00 0.00 0.00 83 1006.6
20260505072301 71 216 6.0 13.0 0.00 0.00 0.00 82 1006.4
20260505071757 72 206 10.0 15.0 0.00 0.00 0.00 82 1006.2
20260505071254 72 158 15.0 18.0 0.00 0.00 0.00 81 1006.6
20260505070752 72 175 5.0 9.0 0.00 0.00 0.00 81 1006.6
20260505070248 72 226 6.0 8.0 0.00 0.00 0.00 81 1006.4
20260505065743 72 191 8.0 9.0 0.00 0.00 0.00 81 1006.5
20260505065240 72 184 7.0 13.0 0.00 0.00 0.00 80 1006.5
20260505064737 72 186 12.0 14.0 0.00 0.00 0.00 80 1006.7
20260505064235 72 194 9.0 11.0 0.00 0.00 0.00 80 1006.6
20260505063732 73 182 5.0 8.0 0.00 0.00 0.00 79 1006.8
20260505063229 73 167 5.0 10.0 0.00 0.00 0.00 79 1006.8
20260505062725 73 182 9.0 13.0 0.00 0.00 0.00 79 1006.9
20260505062223 73 214 6.0 11.0 0.00 0.00 0.00 79 1006.7
20260505061719 73 198 8.0 13.0 0.00 0.00 0.00 78 1006.8
20260505061218 73 195 6.0 11.0 0.00 0.00 0.00 78 1006.8
20260505060715 73 179 6.0 8.0 0.00 0.00 0.00 78 1006.8
20260505060211 73 196 14.0 18.0 0.00 0.00 0.00 77 1007.0
20260505055707 73 142 6.0 8.0 0.00 0.00 0.00 77 1006.7
20260505055203 73 90 5.0 10.0 0.00 0.00 0.00 77 1006.8
20260505054701 73 185 7.0 10.0 0.00 0.00 0.00 77 1006.8
20260505054159 73 154 8.0 11.0 0.00 0.00 0.00 77 1006.8
20260505053656 73 155 5.0 7.0 0.00 0.00 0.00 77 1006.9
20260505053153 73 231 7.0 10.0 0.00 0.00 0.00 77 1006.8
20260505052650 73 139 6.0 9.0 0.00 0.00 0.00 77 1007.0
20260505052147 73 200 5.0 9.0 0.00 0.00 0.00 76 1006.9
20260505051643 73 185 5.0 7.0 0.00 0.00 0.00 76 1007.0
20260505051142 73 151 7.0 13.0 0.00 0.00 0.00 76 1007.2
20260505050639 73 159 5.0 9.0 0.00 0.00 0.00 76 1007.0
20260505050138 73 187 8.0 10.0 0.00 0.00 0.00 76 1007.2
20260505041607 73 157 5.0 9.0 0.00 0.00 0.00 74 1007.5
20260505041105 73 209 4.0 7.0 0.00 0.00 0.00 74 1007.3
20260505040602 74 156 7.0 9.0 0.00 0.00 0.00 74 1007.2
20260505040059 74 183 6.0 10.0 0.00 0.00 0.00 73 1007.6
20260505035555 74 138 9.0 14.0 0.00 0.00 0.00 73 1007.4
20260505035051 74 180 7.0 13.0 0.00 0.00 0.00 73 1007.1
20260505034548 74 155 8.0 10.0 0.00 0.00 0.00 73 1007.3
20260505034045 74 135 7.0 10.0 0.00 0.00 0.00 72 1007.1
20260505033542 74 132 5.0 8.0 0.00 0.00 0.00 72 1007.1
20260505033040 74 153 5.0 10.0 0.00 0.00 0.00 72 1007.1
20260505032538 74 264 4.0 9.0 0.00 0.00 0.00 71 1007.4
20260505032034 75 179 5.0 11.0 0.00 0.00 0.00 71 1007.2
20260505031531 75 142 5.0 10.0 0.00 0.00 0.00 71 1007.3
20260505031027 75 87 3.0 8.0 0.00 0.00 0.00 71 1007.4
20260505030525 75 127 4.0 11.0 0.00 0.00 0.00 70 1007.5
20260505030021 75 125 4.0 8.0 0.00 0.00 0.00 70 1007.5
20260505025516 75 164 6.0 13.0 0.00 0.00 0.00 70 1007.5
20260505025016 75 116 4.0 11.0 0.00 0.00 0.00 70 1007.2
20260505024512 75 163 5.0 7.0 0.00 0.00 0.00 70 1007.1
20260505024009 75 115 6.0 8.0 0.00 0.00 0.00 69 1006.9
20260505023506 75 169 7.0 8.0 0.00 0.00 0.00 70 1007.3
20260505023004 75 202 7.0 13.0 0.00 0.00 0.00 70 1007.0
20260505022501 75 195 4.0 10.0 0.00 0.00 0.00 69 1006.9
20260505021958 75 146 5.0 9.0 0.00 0.00 0.00 69 1006.8
20260505021455 75 143 5.0 8.0 0.00 0.00 0.00 69 1007.0
20260505020950 75 131 3.0 10.0 0.00 0.00 0.00 69 1007.1
20260505020445 76 187 5.0 8.0 0.00 0.00 0.00 68 1007.1
20260505015943 76 156 5.0 9.0 0.00 0.00 0.00 68 1006.9
20260505015440 76 240 3.0 8.0 0.00 0.00 0.00 68 1007.0
20260505014937 76 217 2.0 14.0 0.00 0.00 0.00 68 1007.0
20260505014434 76 172 6.0 8.0 0.00 0.00 0.00 67 1007.0
20260505013931 76 219 6.0 10.0 0.00 0.00 0.00 67 1007.0
20260505013428 76 198 4.0 9.0 0.00 0.00 0.00 67 1007.0
20260505012926 76 157 8.0 13.0 0.00 0.00 0.00 67 1007.0
20260505012424 77 207 4.0 10.0 0.00 0.00 0.00 66 1006.9
20260505011920 77 191 4.0 8.0 0.00 0.00 0.00 66 1006.7
20260505011416 77 220 4.0 13.0 0.00 0.00 0.00 65 1006.9
20260505010913 77 167 7.0 13.0 0.00 0.00 0.00 65 1006.9
20260505010409 77 213 4.0 8.0 0.00 0.00 0.00 64 1006.9
20260505005905 77 168 7.0 11.0 0.00 0.00 0.00 64 1006.8
20260505005402 77 149 8.0 14.0 0.00 0.00 0.00 63 1006.8
20260505004859 77 184 8.0 16.0 0.00 0.00 0.00 63 1007.1
20260505004355 78 190 8.0 16.0 0.00 0.00 0.00 63 1006.9
20260505003853 78 197 7.0 24.0 0.00 0.00 0.00 63 1007.0
20260505003350 78 203 9.0 14.0 0.00 0.00 0.00 63 1006.9
20260505002846 78 190 9.0 18.0 0.00 0.00 0.00 63 1007.2